Flag Weather past 2 weeks in Charleston, South Carolina, U.S.A.

Now
74 °F

Passing clouds.


Feels Like: 77 °F
Forecast: 60 / 71 °F
Wind: 6 mph from North

Location: Charleston Air Force Base Reporting Station

Current Time: Oct 30, 2014 at 2:29:21 PM

Latest Report: Oct 30, 2014 at 1:56 PM


Visibility: 10 mi

Pressure: 29.94 "Hg

Humidity: 53%

Dew point: 56 °F

Location of CharlestonLocation

Historic Weather in Charleston — Graph

°F

Charleston temperature yesterday

Maximum temperature yesterday: 83 °F (at 1:56 PM)
Minimum temperature yesterday: 66 °F (at 12:56 AM)
Average temperature yesterday: 72 °F

Past Weeks' High & Low Weather Summary

 TemperatureHumidityPressure
High85 °F (Oct 18, 3:56 PM)96% (Oct 27, 11:56 PM)30.18 "Hg (Oct 27, 11:56 PM)
Low46 °F (Oct 23, 5:56 AM)30% (Oct 25, 3:56 PM)29.79 "Hg (Oct 18, 4:56 PM)
Average66 °F66%29.99 "Hg
* Reported Oct 15 12:56 PM — Oct 30 12:56 PM, Charleston, Weather by CustomWeather, © 2014

Note: Actual official high and low records may vary slightly from our data, if they occured in-between our weather recording intervals... More about our weather records

Advertising

Charleston weather history for previous 24 hours

 ConditionsComfort  
Time TempWeatherWind HumidityBarometerVisibility
12:56 PM
Oct 30
72 °FSunny.10 mph53%29.98 "Hg10 mi
11:56 AM70 °FSunny.10 mph55%29.99 "Hg10 mi
10:56 AM68 °FSunny.10 mph59%29.99 "Hg10 mi
9:56 AM65 °FPassing clouds.10 mph63%30.00 "Hg10 mi
8:56 AM62 °FPassing clouds.9 mph70%29.99 "Hg10 mi
7:56 AM60 °FPartly cloudy.9 mph78%29.98 "Hg10 mi
6:56 AM63 °FMostly cloudy.13 mph84%29.97 "Hg10 mi
5:56 AM68 °FPassing clouds.6 mph87%29.94 "Hg10 mi
4:56 AM68 °FPassing clouds.7 mph87%29.93 "Hg10 mi
3:56 AM69 °FPassing clouds.6 mph90%29.93 "Hg10 mi
2:56 AM70 °FPartly cloudy.7 mph87%29.94 "Hg10 mi
1:56 AM70 °FMostly cloudy.3 mph87%29.96 "Hg10 mi
12:56 AM69 °FPassing clouds.5 mph90%29.96 "Hg10 mi
11:56 PM
Oct 29
67 °FPassing clouds.3 mph90%29.96 "Hg10 mi
10:56 PM69 °FPassing clouds.3 mph87%29.97 "Hg10 mi
9:56 PM70 °FPassing clouds.3 mph87%29.98 "Hg10 mi
8:56 PM71 °FPassing clouds.7 mph84%29.97 "Hg10 mi
7:56 PM72 °FPartly cloudy.8 mph78%29.98 "Hg10 mi
6:56 PM74 °FPartly sunny.8 mph71%29.97 "Hg10 mi
5:56 PM77 °FBroken clouds.12 mph62%29.96 "Hg10 mi
4:56 PM81 °FBroken clouds.10 mph53%29.96 "Hg10 mi
3:56 PM82 °FScattered clouds.8 mph49%29.97 "Hg10 mi
2:56 PM82 °FBroken clouds.8 mph49%29.99 "Hg10 mi
Weather by CustomWeather, © 2014

See weather overviewHow to use our weather pages